EWG6HP EDDH-EDXW

Flight info

Callsign EWG6HP
Flight time 0h 28m
Altitude 10000
Route SOKWO1G/33 SOKWO T814 EXNEL DCT OLDIP
Aircraft A320/M-SDE3FGHIRWY/LB1

Departure

Time 2026-04-16 14:59
Airport Hamburg Helmut Schmidt Airport (EDDH)

Arrival

Time 2026-04-16 15:27
Airport Westerland Sylt Airport (EDXW)
Time Latitude Longitude Altitude Speed Heading
2026-04-16 14:33 53.62944 10.00291 51 ft 0 kts 122°
2026-04-16 14:51 53.62947 10.00282 51 ft 2 kts 121°
2026-04-16 14:51 53.62957 10.00253 51 ft 3 kts 119°
2026-04-16 14:53 53.62993 10.00180 51 ft 0 kts 212°
2026-04-16 14:55 53.62984 10.00171 51 ft 3 kts 212°
2026-04-16 14:55 53.62968 10.00154 49 ft 2 kts 212°
2026-04-16 14:56 53.62955 10.00140 50 ft 2 kts 212°
2026-04-16 14:56 53.62936 10.00120 51 ft 7 kts 212°
2026-04-16 14:56 53.62878 10.00055 48 ft 11 kts 223°
2026-04-16 14:56 53.62844 9.99960 50 ft 6 kts 244°
2026-04-16 14:57 53.62843 9.99956 50 ft 0 kts 244°
2026-04-16 14:58 53.62842 9.99953 50 ft 2 kts 244°
2026-04-16 14:58 53.62824 9.99775 49 ft 11 kts 323°
2026-04-16 14:58 53.62990 9.99635 48 ft 57 kts 333°
2026-04-16 14:59 53.63544 9.99156 51 ft 120 kts 333°
2026-04-16 14:59 53.64425 9.98426 291 ft 147 kts 332°
2026-04-16 14:59 53.65344 9.97678 1049 ft 148 kts 330°
2026-04-16 14:59 53.65959 9.97167 1563 ft 150 kts 329°
2026-04-16 15:00 53.66944 9.96343 2135 ft 169 kts 329°
2026-04-16 15:00 53.68055 9.95375 2564 ft 191 kts 329°
2026-04-16 15:00 53.69399 9.94701 3067 ft 212 kts 353°
2026-04-16 15:00 53.70903 9.94659 3733 ft 219 kts 356°
2026-04-16 15:01 53.72443 9.94666 4529 ft 223 kts 359°
2026-04-16 15:01 53.73994 9.95262 5098 ft 239 kts 21°
2026-04-16 15:01 53.75499 9.96795 5515 ft 265 kts 30°
2026-04-16 15:01 53.77084 9.98553 6214 ft 278 kts 30°
2026-04-16 15:02 53.78715 10.00357 7106 ft 282 kts 30°
2026-04-16 15:02 53.80373 10.02184 8009 ft 286 kts 30°
2026-04-16 15:02 53.82046 10.04029 8933 ft 289 kts 30°
2026-04-16 15:02 53.83744 10.05897 9871 ft 292 kts 30°
2026-04-16 15:03 53.85474 10.07791 10497 ft 306 kts 30°
2026-04-16 15:03 53.87371 10.09698 10795 ft 327 kts 21°
2026-04-16 15:03 53.89574 10.10821 11318 ft 334 kts
2026-04-16 15:03 53.91900 10.10912 12058 ft 335 kts 350°
2026-04-16 15:04 53.94178 10.10100 12829 ft 337 kts 343°
2026-04-16 15:04 53.96474 10.09136 13628 ft 341 kts 343°
2026-04-16 15:04 53.98790 10.08150 14362 ft 345 kts 342°
2026-04-16 15:04 54.01127 10.07153 15066 ft 349 kts 342°
2026-04-16 15:05 54.03491 10.06142 15768 ft 352 kts 342°
2026-04-16 15:05 54.05877 10.05122 16456 ft 355 kts 342°
2026-04-16 15:05 54.08282 10.04064 17150 ft 357 kts 339°
2026-04-16 15:05 54.10562 10.02432 17834 ft 356 kts 328°
2026-04-16 15:06 54.12607 10.00070 18502 ft 355 kts 317°
2026-04-16 15:06 54.14349 9.97092 19083 ft 356 kts 309°
2026-04-16 15:06 54.16002 9.93931 19688 ft 358 kts 309°
2026-04-16 15:06 54.17671 9.90744 20070 ft 360 kts 309°
2026-04-16 15:07 54.19345 9.87560 20171 ft 360 kts 309°
2026-04-16 15:07 54.21017 9.84377 20187 ft 360 kts 309°
2026-04-16 15:07 54.22687 9.81200 20189 ft 360 kts 309°
2026-04-16 15:07 54.24411 9.78104 20189 ft 362 kts 315°
2026-04-16 15:08 54.26412 9.75448 20193 ft 364 kts 321°
2026-04-16 15:08 54.28460 9.72905 20194 ft 364 kts 321°
2026-04-16 15:08 54.30511 9.70351 20192 ft 364 kts 320°
2026-04-16 15:08 54.32558 9.67796 20192 ft 364 kts 320°
2026-04-16 15:09 54.34605 9.65236 20193 ft 364 kts 320°
2026-04-16 15:09 54.36542 9.62471 20194 ft 361 kts 311°
2026-04-16 15:09 54.38067 9.59083 20194 ft 358 kts 298°
2026-04-16 15:09 54.39164 9.55275 20194 ft 356 kts 293°
2026-04-16 15:10 54.40194 9.51442 20167 ft 347 kts 293°
2026-04-16 15:10 54.41208 9.47702 19943 ft 337 kts 293°
2026-04-16 15:10 54.42178 9.44123 19539 ft 333 kts 293°
2026-04-16 15:10 54.43162 9.40481 19098 ft 331 kts 293°
2026-04-16 15:11 54.44121 9.36913 18611 ft 327 kts 293°
2026-04-16 15:11 54.45058 9.33423 17920 ft 325 kts 293°
2026-04-16 15:11 54.46012 9.29864 17227 ft 323 kts 293°
2026-04-16 15:11 54.46951 9.26371 16571 ft 320 kts 293°
2026-04-16 15:12 54.47868 9.22953 15960 ft 318 kts 293°
2026-04-16 15:12 54.48789 9.19516 15309 ft 314 kts 293°
2026-04-16 15:12 54.49697 9.16115 14557 ft 312 kts 293°
2026-04-16 15:12 54.50594 9.12737 13792 ft 309 kts 293°
2026-04-16 15:13 54.51482 9.09383 13079 ft 309 kts 293°
2026-04-16 15:13 54.52370 9.06030 12659 ft 306 kts 293°
2026-04-16 15:13 54.53245 9.02716 12057 ft 300 kts 293°
2026-04-16 15:13 54.54083 8.99549 11829 ft 283 kts 293°
2026-04-16 15:14 54.54887 8.96511 11344 ft 276 kts 293°
2026-04-16 15:14 54.55676 8.93525 10782 ft 272 kts 293°
2026-04-16 15:14 54.56456 8.90564 10204 ft 270 kts 293°
2026-04-16 15:14 54.56977 8.87498 9610 ft 268 kts 271°
2026-04-16 15:15 54.56699 8.84344 9203 ft 267 kts 256°
2026-04-16 15:15 54.56192 8.81283 8796 ft 266 kts 254°
2026-04-16 15:15 54.55631 8.78251 8396 ft 265 kts 246°
2026-04-16 15:15 54.54654 8.75579 7995 ft 264 kts 235°
2026-04-16 15:16 54.53472 8.73168 7592 ft 264 kts 220°
2026-04-16 15:16 54.51822 8.71826 7211 ft 267 kts 192°
2026-04-16 15:16 54.49974 8.72001 6813 ft 271 kts 164°
2026-04-16 15:16 54.48357 8.73686 6396 ft 276 kts 136°
2026-04-16 15:17 54.47377 8.76505 6051 ft 278 kts 106°
2026-04-16 15:17 54.47297 8.79825 6013 ft 283 kts 77°
2026-04-16 15:17 54.48102 8.82875 5926 ft 281 kts 49°
2026-04-16 15:17 54.49604 8.84966 5797 ft 278 kts 23°
2026-04-16 15:18 54.51421 8.85821 5673 ft 265 kts 359°
2026-04-16 15:18 54.53203 8.85427 5539 ft 256 kts 337°
2026-04-16 15:18 54.54725 8.83956 5415 ft 249 kts 316°
2026-04-16 15:18 54.55903 8.81787 5229 ft 248 kts 308°
2026-04-16 15:19 54.57036 8.79562 4978 ft 246 kts 308°
2026-04-16 15:19 54.58166 8.77351 4716 ft 245 kts 309°
2026-04-16 15:19 54.59294 8.75148 4449 ft 244 kts 309°
2026-04-16 15:19 54.60418 8.72958 4196 ft 243 kts 308°
2026-04-16 15:20 54.61550 8.70797 4037 ft 244 kts 314°
2026-04-16 15:20 54.62866 8.68970 3803 ft 241 kts 321°
2026-04-16 15:20 54.64222 8.67332 3548 ft 236 kts 322°
2026-04-16 15:20 54.65225 8.66123 3355 ft 234 kts 322°
2026-04-16 15:21 54.66547 8.64516 3139 ft 232 kts 321°
2026-04-16 15:21 54.67838 8.62940 3031 ft 223 kts 321°
2026-04-16 15:21 54.69100 8.61398 3024 ft 221 kts 321°
2026-04-16 15:21 54.70354 8.59865 3018 ft 217 kts 321°
2026-04-16 15:22 54.71571 8.58375 3016 ft 211 kts 321°
2026-04-16 15:22 54.72747 8.56936 3014 ft 205 kts 321°
2026-04-16 15:22 54.73904 8.55518 3013 ft 202 kts 321°
2026-04-16 15:22 54.75049 8.54113 3013 ft 200 kts 321°
2026-04-16 15:23 54.76150 8.52765 3009 ft 188 kts 321°
2026-04-16 15:23 54.77201 8.51474 3027 ft 183 kts 321°
2026-04-16 15:23 54.78224 8.50217 2958 ft 176 kts 321°
2026-04-16 15:23 54.79193 8.49026 2764 ft 166 kts 320°
2026-04-16 15:24 54.80095 8.47919 2588 ft 150 kts 320°
2026-04-16 15:24 54.80946 8.46870 2374 ft 148 kts 320°
2026-04-16 15:24 54.81762 8.45864 2174 ft 145 kts 319°
2026-04-16 15:24 54.82589 8.44846 1980 ft 146 kts 319°
2026-04-16 15:25 54.83426 8.43832 1776 ft 147 kts 320°
2026-04-16 15:25 54.84248 8.42802 1562 ft 144 kts 319°
2026-04-16 15:25 54.85045 8.41800 1355 ft 139 kts 320°
2026-04-16 15:25 54.85833 8.40868 1134 ft 135 kts 320°
2026-04-16 15:26 54.86588 8.39933 954 ft 132 kts 318°
2026-04-16 15:26 54.87338 8.38984 789 ft 136 kts 319°
2026-04-16 15:26 54.88113 8.38049 607 ft 135 kts 320°
2026-04-16 15:26 54.88865 8.37097 430 ft 133 kts 319°
2026-04-16 15:27 54.89611 8.36174 270 ft 131 kts 319°
2026-04-16 15:27 54.90353 8.35257 90 ft 130 kts 319°
2026-04-16 15:27 54.91041 8.34401 45 ft 106 kts 323°
2026-04-16 15:27 54.91440 8.33905 41 ft 46 kts 323°
2026-04-16 15:28 54.91659 8.33625 43 ft 27 kts 310°
2026-04-16 15:28 54.91729 8.33359 40 ft 24 kts 293°
2026-04-16 15:28 54.91743 8.33180 41 ft 11 kts 209°
2026-04-16 15:28 54.91661 8.33177 41 ft 12 kts 178°
2026-04-16 15:29 54.91577 8.33178 41 ft 12 kts 180°
2026-04-16 15:29 54.91492 8.33180 41 ft 12 kts 173°
2026-04-16 15:29 54.91423 8.33236 40 ft 7 kts 150°
2026-04-16 15:29 54.91388 8.33225 38 ft 4 kts 233°
2026-04-16 15:30 54.91387 8.33167 40 ft 6 kts 271°
2026-04-16 15:30 54.91387 8.33119 40 ft 0 kts 269°
2026-04-16 15:31 54.91387 8.33117 40 ft 0 kts 269°